Time,TemperatureF,DewpointF,PressureIn,WindDirection,WindDirectionDegrees,WindSpeedMPH,WindSpeedGustMPH,Humidity,HourlyPrecipIn,Conditions,Clouds,dailyrainin,SoftwareType,DateUTC
2013-01-01 00:00:00,35.2,20.7,29.98,SE,136,0.0,0.0,55,0.00,,---,0.00,VWS V14.01,2013-01-01 05:00:00,
2013-01-01 00:01:00,35.2,20.2,29.97,SE,136,0.0,0.0,54,0.00,,---,0.00,VWS V14.01,2013-01-01 05:01:00,
2013-01-01 00:06:00,35.3,21.2,29.97,SE,136,0.0,0.0,56,0.00,,---,0.00,VWS V14.01,2013-01-01 05:06:00,
2013-01-01 00:11:00,35.5,21.0,29.97,SE,136,0.0,0.0,55,0.00,,---,0.00,VWS V14.01,2013-01-01 05:11:00,
2013-01-01 00:16:00,35.6,22.7,29.96,SE,136,0.0,0.0,59,0.00,,---,0.00,VWS V14.01,2013-01-01 05:16:00,
2013-01-01 00:21:00,35.8,20.8,29.96,SE,136,0.0,0.0,54,0.00,,---,0.00,VWS V14.01,2013-01-01 05:21:00,
2013-01-01 00:26:00,36.0,21.0,29.96,SE,136,0.0,0.0,54,0.00,,---,0.00,VWS V14.01,2013-01-01 05:26:00,
2013-01-01 00:31:00,36.3,22.1,29.96,SE,136,0.0,0.0,56,0.00,,---,0.00,VWS V14.01,2013-01-01 05:31:00,
2013-01-01 00:36:00,36.3,21.7,29.96,SE,136,2.0,2.0,55,0.00,,---,0.00,VWS V14.01,2013-01-01 05:36:00,
2013-01-01 00:41:00,36.3,21.3,29.96,SE,136,2.0,3.0,54,0.00,,---,0.00,VWS V14.01,2013-01-01 05:41:00,
2013-01-01 00:46:00,37.5,21.0,29.96,SE,136,1.0,1.0,51,0.00,,---,0.00,VWS V14.01,2013-01-01 05:46:00,
2013-01-01 00:51:00,38.6,21.1,29.96,SE,136,0.0,0.0,49,0.00,,---,0.00,VWS V14.01,2013-01-01 05:51:00,
2013-01-01 00:56:00,39.2,21.2,29.96,SE,136,0.0,2.0,48,0.00,,---,0.00,VWS V14.01,2013-01-01 05:56:00,
2013-01-01 01:01:00,39.3,21.3,29.96,SE,136,0.0,0.0,48,0.00,,---,0.00,VWS V14.01,2013-01-01 06:01:00,
2013-01-01 01:06:00,39.3,21.8,29.96,SE,136,2.0,2.0,49,0.00,,---,0.00,VWS V14.01,2013-01-01 06:06:00,
2013-01-01 01:11:00,39.6,22.0,29.96,SE,134,0.0,1.0,49,0.00,,---,0.00,VWS V14.01,2013-01-01 06:11:00,
2013-01-01 01:16:00,39.9,22.3,29.96,SE,134,0.0,0.0,49,0.00,,---,0.00,VWS V14.01,2013-01-01 06:16:00,
2013-01-01 01:21:00,39.9,22.3,29.96,SE,134,0.0,0.0,49,0.00,,---,0.00,VWS V14.01,2013-01-01 06:21:00,
2013-01-01 01:26:00,39.9,22.3,29.96,SE,134,0.0,1.0,49,0.00,,---,0.00,VWS V14.01,2013-01-01 06:26:00,
2013-01-01 01:31:00,39.6,22.0,29.95,SE,137,0.0,3.0,49,0.00,,---,0.00,VWS V14.01,2013-01-01 06:31:00,
2013-01-01 01:36:00,39.9,22.3,29.95,SE,133,0.0,0.0,49,0.00,,---,0.00,VWS V14.01,2013-01-01 06:36:00,
2013-01-01 01:41:00,39.9,22.8,29.95,SE,133,1.0,4.0,50,0.00,,---,0.00,VWS V14.01,2013-01-01 06:41:00,
2013-01-01 01:46:00,39.3,22.7,29.95,SE,132,0.0,1.0,51,0.00,,---,0.00,VWS V14.01,2013-01-01 06:46:00,
2013-01-01 01:51:00,39.1,22.5,29.95,SE,132,0.0,0.0,51,0.00,,---,0.00,VWS V14.01,2013-01-01 06:51:00,
2013-01-01 01:56:00,38.5,23.8,29.95,SE,133,2.0,2.0,55,0.00,,---,0.00,VWS V14.01,2013-01-01 06:56:00,
2013-01-01 02:01:00,37.8,23.1,29.95,SE,133,0.0,0.0,55,0.00,,---,0.00,VWS V14.01,2013-01-01 07:01:00,
2013-01-01 02:06:00,37.5,22.4,29.95,SE,133,3.0,4.0,54,0.00,,---,0.00,VWS V14.01,2013-01-01 07:06:00,
2013-01-01 02:11:00,37.8,23.1,29.95,SE,133,0.0,0.0,55,0.00,,---,0.00,VWS V14.01,2013-01-01 07:11:00,
2013-01-01 02:16:00,37.0,22.8,29.96,SE,133,0.0,1.0,56,0.00,,---,0.00,VWS V14.01,2013-01-01 07:16:00,
2013-01-01 02:21:00,37.0,22.8,29.96,SE,133,0.0,0.0,56,0.00,,---,0.00,VWS V14.01,2013-01-01 07:21:00,
2013-01-01 02:26:00,37.2,23.0,29.96,SE,133,0.0,0.0,56,0.00,,---,0.00,VWS V14.01,2013-01-01 07:26:00,
2013-01-01 02:31:00,36.8,23.4,29.96,SE,133,0.0,1.0,58,0.00,,---,0.00,VWS V14.01,2013-01-01 07:31:00,
2013-01-01 02:36:00,36.5,23.5,29.96,SE,133,0.0,0.0,59,0.00,,---,0.00,VWS V14.01,2013-01-01 07:36:00,
2013-01-01 02:41:00,36.6,23.2,29.96,SE,133,0.0,0.0,58,0.00,,---,0.00,VWS V14.01,2013-01-01 07:41:00,
2013-01-01 02:46:00,36.6,22.4,29.95,SE,133,0.0,0.0,56,0.00,,---,0.00,VWS V14.01,2013-01-01 07:46:00,
2013-01-01 02:51:00,37.5,24.1,29.95,SE,133,2.0,2.0,58,0.00,,---,0.00,VWS V14.01,2013-01-01 07:51:00,
2013-01-01 02:56:00,37.6,23.3,29.95,SE,134,0.0,0.0,56,0.00,,---,0.00,VWS V14.01,2013-01-01 07:56:00,
2013-01-01 03:01:00,37.8,24.0,29.95,SE,134,1.0,3.0,57,0.00,,---,0.00,VWS V14.01,2013-01-01 08:01:00,
2013-01-01 03:06:00,37.3,23.9,29.95,SE,134,0.0,0.0,58,0.00,,---,0.00,VWS V14.01,2013-01-01 08:06:00,
2013-01-01 03:11:00,37.3,23.9,29.95,SE,134,0.0,1.0,58,0.00,,---,0.00,VWS V14.01,2013-01-01 08:11:00,
2013-01-01 03:16:00,37.9,22.8,29.95,SSE,159,0.0,1.0,54,0.00,,---,0.00,VWS V14.01,2013-01-01 08:16:00,
2013-01-01 03:21:00,38.8,23.1,29.95,SSE,159,0.0,0.0,53,0.00,,---,0.00,VWS V14.01,2013-01-01 08:21:00,
2013-01-01 03:26:00,39.2,23.5,29.95,SSE,159,2.0,2.0,53,0.00,,---,0.00,VWS V14.01,2013-01-01 08:26:00,
2013-01-01 03:31:00,40.1,23.9,29.95,WNW,299,1.0,1.0,52,0.00,,---,0.00,VWS V14.01,2013-01-01 08:31:00,
2013-01-01 03:36:00,40.6,23.9,29.95,SW,216,0.0,1.0,51,0.00,,---,0.00,VWS V14.01,2013-01-01 08:36:00,
2013-01-01 03:41:00,40.6,23.9,29.95,SW,216,0.0,0.0,51,0.00,,---,0.00,VWS V14.01,2013-01-01 08:41:00,
2013-01-01 03:46:00,40.8,24.5,29.95,WSW,238,2.0,2.0,52,0.00,,---,0.00,VWS V14.01,2013-01-01 08:46:00,
2013-01-01 03:51:00,40.8,25.0,29.95,WSW,240,0.0,0.0,53,0.00,,---,0.00,VWS V14.01,2013-01-01 08:51:00,
2013-01-01 03:56:00,40.6,24.8,29.95,WSW,240,0.0,0.0,53,0.00,,---,0.00,VWS V14.01,2013-01-01 08:56:00,
2013-01-01 04:01:00,40.5,24.3,29.94,SW,221,0.0,1.0,52,0.00,,---,0.00,VWS V14.01,2013-01-01 09:01:00,
2013-01-01 04:06:00,40.3,24.1,29.94,SW,221,0.0,0.0,52,0.00,,---,0.00,VWS V14.01,2013-01-01 09:06:00,
2013-01-01 04:11:00,39.9,24.2,29.94,SSW,211,0.0,0.0,53,0.00,,---,0.00,VWS V14.01,2013-01-01 09:11:00,
2013-01-01 04:16:00,39.6,23.9,29.94,SSW,211,0.0,0.0,53,0.00,,---,0.00,VWS V14.01,2013-01-01 09:16:00,
2013-01-01 04:21:00,39.3,24.5,29.94,SSW,208,0.0,0.0,55,0.00,,---,0.00,VWS V14.01,2013-01-01 09:21:00,
2013-01-01 04:26:00,38.9,24.1,29.94,SSW,208,0.0,2.0,55,0.00,,---,0.00,VWS V14.01,2013-01-01 09:26:00,
2013-01-01 04:31:00,38.9,25.0,29.95,SSE,160,0.0,1.0,57,0.00,,---,0.00,VWS V14.01,2013-01-01 09:31:00,
2013-01-01 04:36:00,39.1,25.6,29.95,SSE,153,4.0,7.0,58,0.00,,---,0.00,VWS V14.01,2013-01-01 09:36:00,
2013-01-01 04:41:00,39.3,25.8,29.95,SSE,160,0.0,0.0,58,0.00,,---,0.00,VWS V14.01,2013-01-01 09:41:00,
2013-01-01 04:46:00,39.3,25.8,29.96,SSE,147,0.0,2.0,58,0.00,,---,0.00,VWS V14.01,2013-01-01 09:46:00,
2013-01-01 04:51:00,39.6,25.6,29.96,South,185,0.0,4.0,57,0.00,,---,0.00,VWS V14.01,2013-01-01 09:51:00,
2013-01-01 04:56:00,39.8,26.2,29.96,SE,138,1.0,2.0,58,0.00,,---,0.00,VWS V14.01,2013-01-01 09:56:00,
2013-01-01 05:01:00,39.8,26.2,29.94,SE,136,1.0,2.0,58,0.00,,---,0.00,VWS V14.01,2013-01-01 10:01:00,
2013-01-01 05:06:00,39.8,26.7,29.94,SE,130,0.0,1.0,59,0.00,,---,0.00,VWS V14.01,2013-01-01 10:06:00,
2013-01-01 05:11:00,39.8,26.7,29.94,SE,127,0.0,2.0,59,0.00,,---,0.00,VWS V14.01,2013-01-01 10:11:00,
2013-01-01 05:16:00,39.8,26.7,29.94,SE,126,0.0,1.0,59,0.00,,---,0.00,VWS V14.01,2013-01-01 10:16:00,
2013-01-01 05:21:00,39.6,26.5,29.94,SE,126,0.0,1.0,59,0.00,,---,0.00,VWS V14.01,2013-01-01 10:21:00,
2013-01-01 05:26:00,39.5,26.8,29.94,SE,126,0.0,1.0,60,0.00,,---,0.00,VWS V14.01,2013-01-01 10:26:00,
2013-01-01 05:31:00,39.3,26.6,29.93,SE,126,0.0,1.0,60,0.00,,---,0.00,VWS V14.01,2013-01-01 10:31:00,
2013-01-01 05:36:00,39.1,26.8,29.93,SE,126,0.0,1.0,61,0.00,,---,0.00,VWS V14.01,2013-01-01 10:36:00,
2013-01-01 05:41:00,38.8,26.5,29.93,SE,126,0.0,0.0,61,0.00,,---,0.00,VWS V14.01,2013-01-01 10:41:00,
2013-01-01 05:46:00,38.8,27.3,29.94,SE,126,0.0,0.0,63,0.00,,---,0.00,VWS V14.01,2013-01-01 10:46:00,
2013-01-01 05:51:00,38.6,27.1,29.94,SE,126,0.0,0.0,63,0.00,,---,0.00,VWS V14.01,2013-01-01 10:51:00,
2013-01-01 05:56:00,38.5,27.0,29.94,SE,126,0.0,1.0,63,0.00,,---,0.00,VWS V14.01,2013-01-01 10:56:00,
2013-01-01 06:01:00,38.6,27.1,29.93,SE,126,0.0,0.0,63,0.00,,---,0.00,VWS V14.01,2013-01-01 11:01:00,
2013-01-01 06:06:00,38.8,27.3,29.93,SE,124,0.0,0.0,63,0.00,,---,0.00,VWS V14.01,2013-01-01 11:06:00,
2013-01-01 06:11:00,38.8,27.7,29.93,SE,124,0.0,0.0,64,0.00,,---,0.00,VWS V14.01,2013-01-01 11:11:00,
2013-01-01 06:16:00,38.6,27.5,29.93,SE,124,0.0,0.0,64,0.00,,---,0.00,VWS V14.01,2013-01-01 11:16:00,
2013-01-01 06:21:00,38.5,27.4,29.93,SE,124,0.0,0.0,64,0.00,,---,0.00,VWS V14.01,2013-01-01 11:21:00,
2013-01-01 06:26:00,38.3,27.6,29.93,SE,124,0.0,1.0,65,0.00,,---,0.00,VWS V14.01,2013-01-01 11:26:00,
2013-01-01 06:31:00,38.2,27.9,29.93,SE,124,0.0,0.0,66,0.00,,---,0.00,VWS V14.01,2013-01-01 11:31:00,
2013-01-01 06:36:00,38.0,27.7,29.93,SE,124,0.0,0.0,66,0.00,,---,0.00,VWS V14.01,2013-01-01 11:36:00,
2013-01-01 06:41:00,38.0,27.7,29.93,SE,124,0.0,0.0,66,0.00,,---,0.00,VWS V14.01,2013-01-01 11:41:00,
2013-01-01 06:46:00,38.2,28.2,29.93,SE,124,0.0,1.0,67,0.00,,---,0.00,VWS V14.01,2013-01-01 11:46:00,
2013-01-01 06:51:00,38.5,28.1,29.93,SE,124,0.0,4.0,66,0.00,,---,0.00,VWS V14.01,2013-01-01 11:51:00,
2013-01-01 06:56:00,38.3,28.0,29.93,SE,135,0.0,0.0,66,0.00,,---,0.00,VWS V14.01,2013-01-01 11:56:00,
2013-01-01 07:01:00,38.3,28.0,29.92,SE,135,0.0,0.0,66,0.00,,---,0.00,VWS V14.01,2013-01-01 12:01:00,
2013-01-01 07:06:00,38.3,28.0,29.92,SE,135,0.0,1.0,66,0.00,,---,0.00,VWS V14.01,2013-01-01 12:06:00,
2013-01-01 07:11:00,38.2,28.6,29.92,SE,135,0.0,0.0,68,0.00,,---,0.00,VWS V14.01,2013-01-01 12:11:00,
2013-01-01 07:16:00,37.9,28.3,29.93,SE,135,0.0,0.0,68,0.00,,---,0.00,VWS V14.01,2013-01-01 12:16:00,
2013-01-01 07:21:00,37.8,28.2,29.93,SE,135,0.0,0.0,68,0.00,,---,0.00,VWS V14.01,2013-01-01 12:21:00,
2013-01-01 07:26:00,37.5,28.6,29.93,SE,135,0.0,0.0,70,0.00,,---,0.00,VWS V14.01,2013-01-01 12:26:00,
2013-01-01 07:31:00,37.2,28.3,29.92,SE,135,0.0,0.0,70,0.00,,---,0.00,VWS V14.01,2013-01-01 12:31:00,
2013-01-01 07:36:00,37.2,28.3,29.92,SE,135,0.0,0.0,70,0.00,,---,0.00,VWS V14.01,2013-01-01 12:36:00,
2013-01-01 07:41:00,36.9,28.4,29.92,SE,135,0.0,0.0,71,0.00,,---,0.00,VWS V14.01,2013-01-01 12:41:00,
2013-01-01 07:46:00,36.8,28.6,29.92,SE,135,0.0,0.0,72,0.00,,---,0.00,VWS V14.01,2013-01-01 12:46:00,
2013-01-01 07:51:00,36.6,28.4,29.92,SE,135,0.0,0.0,72,0.00,,---,0.00,VWS V14.01,2013-01-01 12:51:00,
2013-01-01 07:56:00,36.3,28.5,29.92,SE,135,0.0,0.0,73,0.00,,---,0.00,VWS V14.01,2013-01-01 12:56:00,
2013-01-01 08:01:00,36.3,28.5,29.92,SE,135,0.0,0.0,73,0.00,,---,0.00,VWS V14.01,2013-01-01 13:01:00,
2013-01-01 08:06:00,36.2,29.0,29.92,SE,135,0.0,0.0,75,0.00,,---,0.00,VWS V14.01,2013-01-01 13:06:00,
2013-01-01 08:11:00,36.2,28.7,29.92,SE,135,0.0,0.0,74,0.00,,---,0.00,VWS V14.01,2013-01-01 13:11:00,
2013-01-01 08:16:00,36.2,29.0,29.92,SE,135,0.0,0.0,75,0.00,,---,0.00,VWS V14.01,2013-01-01 13:16:00,
2013-01-01 08:21:00,36.2,29.0,29.92,SE,135,0.0,0.0,75,0.00,,---,0.00,VWS V14.01,2013-01-01 13:21:00,
2013-01-01 08:26:00,36.2,29.0,29.92,SE,135,0.0,0.0,75,0.00,,---,0.00,VWS V14.01,2013-01-01 13:26:00,
2013-01-01 08:31:00,36.3,29.1,29.94,SE,135,0.0,0.0,75,0.00,,---,0.00,VWS V14.01,2013-01-01 13:31:00,
2013-01-01 08:36:00,36.5,29.3,29.94,SE,135,0.0,0.0,75,0.00,,---,0.00,VWS V14.01,2013-01-01 13:36:00,
2013-01-01 08:41:00,36.8,29.6,29.94,SE,135,0.0,0.0,75,0.00,,---,0.00,VWS V14.01,2013-01-01 13:41:00,
2013-01-01 08:46:00,37.0,29.8,29.93,SE,135,1.0,2.0,75,0.00,,---,0.00,VWS V14.01,2013-01-01 13:46:00,
2013-01-01 08:51:00,37.3,29.8,29.93,SE,135,0.0,0.0,74,0.00,,---,0.00,VWS V14.01,2013-01-01 13:51:00,
2013-01-01 08:56:00,37.5,29.6,29.93,SE,135,0.0,1.0,73,0.00,,---,0.00,VWS V14.01,2013-01-01 13:56:00,
2013-01-01 09:00:00,37.8,29.9,29.93,SE,135,0.0,1.0,73,0.00,,---,0.00,VWS V14.01,2013-01-01 14:00:00,
2013-01-01 09:05:00,38.0,30.1,29.93,SE,135,0.0,0.0,73,0.00,,---,0.00,VWS V14.01,2013-01-01 14:05:00,
2013-01-01 09:10:00,38.3,30.4,29.93,SE,135,0.0,0.0,73,0.00,,---,0.00,VWS V14.01,2013-01-01 14:10:00,
2013-01-01 09:15:00,38.5,30.6,29.93,SE,135,0.0,0.0,73,0.00,,---,0.00,VWS V14.01,2013-01-01 14:15:00,
2013-01-01 09:20:00,38.8,30.6,29.93,SE,135,0.0,0.0,72,0.00,,---,0.00,VWS V14.01,2013-01-01 14:20:00,
2013-01-01 09:25:00,39.1,31.2,29.93,SE,135,0.0,0.0,73,0.00,,---,0.00,VWS V14.01,2013-01-01 14:25:00,
2013-01-01 09:30:00,39.5,31.2,29.92,SE,135,0.0,1.0,72,0.00,,---,0.00,VWS V14.01,2013-01-01 14:30:00,
2013-01-01 09:35:00,40.5,31.5,29.92,SE,132,0.0,2.0,70,0.00,,---,0.00,VWS V14.01,2013-01-01 14:35:00,
2013-01-01 09:40:00,41.3,31.9,29.92,South,176,2.0,7.0,69,0.00,,---,0.00,VWS V14.01,2013-01-01 14:40:00,
2013-01-01 09:45:00,41.9,31.8,29.94,South,178,0.0,1.0,67,0.00,,---,0.00,VWS V14.01,2013-01-01 14:45:00,
2013-01-01 09:50:00,42.3,31.8,29.94,SE,146,2.0,3.0,66,0.00,,---,0.00,VWS V14.01,2013-01-01 14:50:00,
2013-01-01 09:55:00,42.6,32.0,29.94,SSE,165,4.0,5.0,66,0.00,,---,0.00,VWS V14.01,2013-01-01 14:55:00,
2013-01-01 10:00:00,42.9,32.3,29.94,South,183,2.0,4.0,66,0.00,,---,0.00,VWS V14.01,2013-01-01 15:00:00,
2013-01-01 10:05:00,42.9,32.0,29.94,South,184,0.0,3.0,65,0.00,,---,0.00,VWS V14.01,2013-01-01 15:05:00,
2013-01-01 10:10:00,43.1,32.5,29.94,SSE,148,4.0,5.0,66,0.00,,---,0.00,VWS V14.01,2013-01-01 15:10:00,
2013-01-01 10:15:00,43.1,32.5,29.91,ESE,119,2.0,4.0,66,0.00,,---,0.00,VWS V14.01,2013-01-01 15:15:00,
2013-01-01 10:20:00,43.2,32.6,29.91,South,191,0.0,4.0,66,0.00,,---,0.00,VWS V14.01,2013-01-01 15:20:00,
2013-01-01 10:25:00,43.2,32.6,29.91,SE,146,3.0,7.0,66,0.00,,---,0.00,VWS V14.01,2013-01-01 15:25:00,
2013-01-01 10:30:00,43.5,32.9,29.92,SE,136,1.0,2.0,66,0.00,,---,0.00,VWS V14.01,2013-01-01 15:30:00,
2013-01-01 10:35:00,43.6,33.0,29.92,SSE,150,1.0,6.0,66,0.00,,---,0.00,VWS V14.01,2013-01-01 15:35:00,
2013-01-01 10:40:00,43.8,32.8,29.92,SSE,167,4.0,4.0,65,0.00,,---,0.00,VWS V14.01,2013-01-01 15:40:00,
2013-01-01 10:45:00,43.9,32.9,29.93,South,181,2.0,3.0,65,0.00,,---,0.00,VWS V14.01,2013-01-01 15:45:00,
2013-01-01 10:50:00,43.9,32.9,29.93,WSW,246,1.0,4.0,65,0.00,,---,0.00,VWS V14.01,2013-01-01 15:50:00,
2013-01-01 10:55:00,43.9,32.9,29.93,SSE,156,1.0,5.0,65,0.00,,---,0.00,VWS V14.01,2013-01-01 15:55:00,
2013-01-01 11:00:00,43.9,33.3,29.92,SSE,149,0.0,0.0,66,0.00,,---,0.00,VWS V14.01,2013-01-01 16:00:00,
2013-01-01 11:05:00,44.1,33.1,29.92,SSE,150,0.0,1.0,65,0.00,,---,0.00,VWS V14.01,2013-01-01 16:05:00,
2013-01-01 11:10:00,44.1,33.1,29.92,SE,131,3.0,5.0,65,0.00,,---,0.00,VWS V14.01,2013-01-01 16:10:00,
2013-01-01 11:15:00,44.1,33.5,29.91,SE,133,0.0,1.0,66,0.00,,---,0.00,VWS V14.01,2013-01-01 16:15:00,
2013-01-01 11:20:00,44.2,33.2,29.91,SE,131,1.0,1.0,65,0.00,,---,0.00,VWS V14.01,2013-01-01 16:20:00,
2013-01-01 11:25:00,44.2,33.2,29.91,SSE,165,1.0,4.0,65,0.00,,---,0.00,VWS V14.01,2013-01-01 16:25:00,
2013-01-01 11:30:00,44.2,33.2,29.91,SSE,165,0.0,1.0,65,0.00,,---,0.00,VWS V14.01,2013-01-01 16:30:00,
2013-01-01 11:35:00,44.3,33.3,29.91,SSE,162,0.0,1.0,65,0.00,,---,0.00,VWS V14.01,2013-01-01 16:35:00,
2013-01-01 11:40:00,44.5,33.5,29.91,SSE,162,0.0,1.0,65,0.00,,---,0.00,VWS V14.01,2013-01-01 16:40:00,
2013-01-01 11:45:00,44.3,33.3,29.90,ESE,113,2.0,4.0,65,0.00,,---,0.00,VWS V14.01,2013-01-01 16:45:00,
2013-01-01 11:50:00,44.3,33.7,29.90,SE,129,1.0,1.0,66,0.00,,---,0.00,VWS V14.01,2013-01-01 16:50:00,
2013-01-01 11:55:00,44.5,33.5,29.90,SE,140,0.0,0.0,65,0.00,,---,0.00,VWS V14.01,2013-01-01 16:55:00,
2013-01-01 12:00:00,44.5,33.5,29.89,SSE,167,4.0,5.0,65,0.00,,---,0.00,VWS V14.01,2013-01-01 17:00:00,
2013-01-01 12:05:00,44.5,33.1,29.89,SSE,147,3.0,4.0,64,0.00,,---,0.00,VWS V14.01,2013-01-01 17:05:00,
2013-01-01 12:10:00,44.5,33.5,29.89,SSE,157,5.0,5.0,65,0.00,,---,0.00,VWS V14.01,2013-01-01 17:10:00,
2013-01-01 12:15:00,44.5,33.5,29.89,South,176,4.0,5.0,65,0.00,,---,0.00,VWS V14.01,2013-01-01 17:15:00,
2013-01-01 12:20:00,44.5,33.1,29.89,South,170,1.0,4.0,64,0.00,,---,0.00,VWS V14.01,2013-01-01 17:20:00,
2013-01-01 12:25:00,44.5,33.1,29.89,South,173,6.0,8.0,64,0.00,,---,0.00,VWS V14.01,2013-01-01 17:25:00,
2013-01-01 12:30:00,44.5,33.1,29.87,South,174,2.0,2.0,64,0.00,,---,0.00,VWS V14.01,2013-01-01 17:30:00,
2013-01-01 12:35:00,44.5,33.1,29.87,South,188,4.0,5.0,64,0.00,,---,0.00,VWS V14.01,2013-01-01 17:35:00,
2013-01-01 12:40:00,44.6,33.2,29.87,SSE,167,8.0,9.0,64,0.00,,---,0.00,VWS V14.01,2013-01-01 17:40:00,
2013-01-01 12:45:00,44.5,33.1,29.87,SSE,166,0.0,0.0,64,0.00,,---,0.00,VWS V14.01,2013-01-01 17:45:00,
2013-01-01 12:50:00,44.5,33.1,29.87,South,190,4.0,6.0,64,0.00,,---,0.00,VWS V14.01,2013-01-01 17:50:00,
2013-01-01 12:55:00,44.5,33.1,29.87,South,173,3.0,4.0,64,0.00,,---,0.00,VWS V14.01,2013-01-01 17:55:00,
2013-01-01 13:00:00,44.5,33.1,29.85,South,173,5.0,6.0,64,0.00,,---,0.00,VWS V14.01,2013-01-01 18:00:00,
2013-01-01 13:05:00,44.5,33.1,29.85,South,173,4.0,5.0,64,0.00,,---,0.00,VWS V14.01,2013-01-01 18:05:00,
2013-01-01 13:10:00,44.6,33.6,29.85,SSE,153,2.0,5.0,65,0.00,,---,0.00,VWS V14.01,2013-01-01 18:10:00,
2013-01-01 13:15:00,44.6,33.2,29.85,SE,136,1.0,4.0,64,0.00,,---,0.00,VWS V14.01,2013-01-01 18:15:00,
2013-01-01 13:20:00,44.8,33.4,29.85,SE,132,2.0,5.0,64,0.00,,---,0.00,VWS V14.01,2013-01-01 18:20:00,
2013-01-01 13:25:00,44.8,33.4,29.85,SE,140,0.0,1.0,64,0.00,,---,0.00,VWS V14.01,2013-01-01 18:25:00,
2013-01-01 13:30:00,44.8,33.4,29.85,South,175,2.0,2.0,64,0.00,,---,0.00,VWS V14.01,2013-01-01 18:30:00,
2013-01-01 13:35:00,44.8,33.4,29.85,SSE,147,0.0,5.0,64,0.00,,---,0.00,VWS V14.01,2013-01-01 18:35:00,
2013-01-01 13:40:00,44.8,33.4,29.85,SE,136,0.0,5.0,64,0.00,,---,0.00,VWS V14.01,2013-01-01 18:40:00,
2013-01-01 13:45:00,44.9,33.5,29.85,SE,136,1.0,1.0,64,0.00,,---,0.00,VWS V14.01,2013-01-01 18:45:00,
2013-01-01 13:50:00,45.1,33.7,29.85,SE,140,3.0,4.0,64,0.00,,---,0.00,VWS V14.01,2013-01-01 18:50:00,
2013-01-01 13:55:00,45.2,33.4,29.85,South,170,2.0,2.0,63,0.00,,---,0.00,VWS V14.01,2013-01-01 18:55:00,
2013-01-01 14:00:00,45.4,33.6,29.84,SSE,150,0.0,6.0,63,0.00,,---,0.00,VWS V14.01,2013-01-01 19:00:00,
2013-01-01 14:05:00,45.4,33.6,29.84,SSE,157,2.0,4.0,63,0.00,,---,0.00,VWS V14.01,2013-01-01 19:05:00,
2013-01-01 14:10:00,45.5,33.7,29.84,SSW,200,0.0,4.0,63,0.00,,---,0.00,VWS V14.01,2013-01-01 19:10:00,
2013-01-01 14:15:00,45.5,33.7,29.84,SSE,168,1.0,3.0,63,0.00,,---,0.00,VWS V14.01,2013-01-01 19:15:00,
2013-01-01 14:20:00,45.7,33.8,29.84,South,191,0.0,0.0,63,0.00,,---,0.00,VWS V14.01,2013-01-01 19:20:00,
2013-01-01 14:25:00,45.7,33.4,29.84,South,174,0.0,1.0,62,0.00,,---,0.00,VWS V14.01,2013-01-01 19:25:00,
2013-01-01 14:30:00,45.7,33.8,29.84,South,190,1.0,1.0,63,0.00,,---,0.00,VWS V14.01,2013-01-01 19:30:00,
2013-01-01 14:35:00,45.8,33.9,29.84,South,180,4.0,4.0,63,0.00,,---,0.00,VWS V14.01,2013-01-01 19:35:00,
2013-01-01 14:40:00,45.8,33.9,29.84,WSW,250,1.0,3.0,63,0.00,,---,0.00,VWS V14.01,2013-01-01 19:40:00,
2013-01-01 14:45:00,46.0,33.7,29.85,ESE,105,7.0,7.0,62,0.00,,---,0.00,VWS V14.01,2013-01-01 19:45:00,
2013-01-01 14:50:00,46.0,33.7,29.85,South,184,2.0,6.0,62,0.00,,---,0.00,VWS V14.01,2013-01-01 19:50:00,
2013-01-01 14:55:00,46.0,33.7,29.85,South,186,6.0,6.0,62,0.00,,---,0.00,VWS V14.01,2013-01-01 19:55:00,
2013-01-01 15:00:00,46.0,33.3,29.86,SE,143,5.0,5.0,61,0.00,,---,0.00,VWS V14.01,2013-01-01 20:00:00,
2013-01-01 15:05:00,46.0,33.3,29.86,South,180,8.0,8.0,61,0.00,,---,0.00,VWS V14.01,2013-01-01 20:05:00,
2013-01-01 15:10:00,46.0,33.7,29.86,South,191,0.0,2.0,62,0.00,,---,0.00,VWS V14.01,2013-01-01 20:10:00,
2013-01-01 15:15:00,45.8,33.5,29.85,SSE,162,4.0,4.0,62,0.00,,---,0.00,VWS V14.01,2013-01-01 20:15:00,
2013-01-01 15:20:00,45.7,33.4,29.85,South,182,2.0,2.0,62,0.00,,---,0.00,VWS V14.01,2013-01-01 20:20:00,
2013-01-01 15:25:00,45.7,33.4,29.85,South,181,4.0,6.0,62,0.00,,---,0.00,VWS V14.01,2013-01-01 20:25:00,
2013-01-01 15:30:00,45.7,33.4,29.85,South,179,0.0,1.0,62,0.00,,---,0.00,VWS V14.01,2013-01-01 20:30:00,
2013-01-01 15:35:00,45.7,33.4,29.85,South,185,4.0,4.0,62,0.00,,---,0.00,VWS V14.01,2013-01-01 20:35:00,
2013-01-01 15:40:00,45.7,33.4,29.85,South,190,2.0,2.0,62,0.00,,---,0.00,VWS V14.01,2013-01-01 20:40:00,
2013-01-01 15:45:00,45.7,33.8,29.86,South,190,0.0,0.0,63,0.00,,---,0.00,VWS V14.01,2013-01-01 20:45:00,
2013-01-01 15:50:00,45.5,34.0,29.86,South,190,0.0,0.0,64,0.00,,---,0.00,VWS V14.01,2013-01-01 20:50:00,
2013-01-01 15:55:00,45.5,33.2,29.86,South,175,2.0,2.0,62,0.00,,---,0.00,VWS V14.01,2013-01-01 20:55:00,
2013-01-01 16:00:00,45.5,33.2,29.87,South,178,0.0,1.0,62,0.00,,---,0.00,VWS V14.01,2013-01-01 21:00:00,
2013-01-01 16:05:00,45.5,33.7,29.87,South,175,0.0,0.0,63,0.00,,---,0.00,VWS V14.01,2013-01-01 21:05:00,
2013-01-01 16:10:00,45.4,33.6,29.87,South,175,1.0,2.0,63,0.00,,---,0.00,VWS V14.01,2013-01-01 21:10:00,
2013-01-01 16:15:00,45.4,33.6,29.87,South,173,1.0,2.0,63,0.00,,---,0.00,VWS V14.01,2013-01-01 21:15:00,
2013-01-01 16:20:00,45.4,33.6,29.87,SSE,167,0.0,2.0,63,0.00,,---,0.00,VWS V14.01,2013-01-01 21:20:00,
2013-01-01 16:25:00,45.2,33.4,29.87,SSE,167,0.0,0.0,63,0.00,,---,0.00,VWS V14.01,2013-01-01 21:25:00,
2013-01-01 16:30:00,45.2,33.4,29.89,SSW,195,7.0,7.0,63,0.00,,---,0.00,VWS V14.01,2013-01-01 21:30:00,
2013-01-01 16:35:00,45.1,33.3,29.89,WSW,253,0.0,5.0,63,0.00,,---,0.00,VWS V14.01,2013-01-01 21:35:00,
2013-01-01 16:40:00,44.9,33.1,29.89,SW,218,0.0,1.0,63,0.00,,---,0.00,VWS V14.01,2013-01-01 21:40:00,
2013-01-01 16:45:00,44.8,33.4,29.89,SW,218,0.0,0.0,64,0.00,,---,0.00,VWS V14.01,2013-01-01 21:45:00,
2013-01-01 16:50:00,44.6,32.8,29.89,SSW,208,5.0,5.0,63,0.00,,---,0.00,VWS V14.01,2013-01-01 21:50:00,
2013-01-01 16:55:00,44.6,33.2,29.89,SSW,202,0.0,2.0,64,0.00,,---,0.00,VWS V14.01,2013-01-01 21:55:00,
2013-01-01 17:00:00,44.5,33.1,29.88,SSW,202,0.0,1.0,64,0.00,,---,0.00,VWS V14.01,2013-01-01 22:00:00,
2013-01-01 17:05:00,44.5,33.1,29.88,South,171,0.0,4.0,64,0.00,,---,0.00,VWS V14.01,2013-01-01 22:05:00,
2013-01-01 17:10:00,44.3,32.9,29.88,South,171,0.0,0.0,64,0.00,,---,0.00,VWS V14.01,2013-01-01 22:10:00,
2013-01-01 17:15:00,44.2,32.8,29.89,South,171,0.0,0.0,64,0.00,,---,0.00,VWS V14.01,2013-01-01 22:15:00,
2013-01-01 17:20:00,44.1,32.7,29.89,South,171,1.0,2.0,64,0.00,,---,0.00,VWS V14.01,2013-01-01 22:20:00,
2013-01-01 17:25:00,43.9,32.5,29.89,South,171,2.0,2.0,64,0.00,,---,0.00,VWS V14.01,2013-01-01 22:25:00,
2013-01-01 17:30:00,43.9,32.5,29.88,South,170,5.0,5.0,64,0.00,,---,0.00,VWS V14.01,2013-01-01 22:30:00,
2013-01-01 17:35:00,43.9,32.5,29.88,SSE,153,0.0,2.0,64,0.00,,---,0.00,VWS V14.01,2013-01-01 22:35:00,
2013-01-01 17:40:00,43.8,32.8,29.88,SSE,153,0.0,1.0,65,0.00,,---,0.00,VWS V14.01,2013-01-01 22:40:00,
2013-01-01 17:45:00,43.8,32.8,29.89,SSE,153,0.0,0.0,65,0.00,,---,0.00,VWS V14.01,2013-01-01 22:45:00,
2013-01-01 17:50:00,43.6,33.0,29.89,SSE,153,0.0,0.0,66,0.00,,---,0.00,VWS V14.01,2013-01-01 22:50:00,
2013-01-01 17:55:00,43.5,32.9,29.89,SSE,153,1.0,1.0,66,0.00,,---,0.00,VWS V14.01,2013-01-01 22:55:00,
2013-01-01 18:00:00,43.3,32.7,29.89,SSE,153,2.0,2.0,66,0.00,,---,0.00,VWS V14.01,2013-01-01 23:00:00,
2013-01-01 18:05:00,43.3,32.7,29.89,SSE,154,1.0,1.0,66,0.00,,---,0.00,VWS V14.01,2013-01-01 23:05:00,
2013-01-01 18:10:00,43.2,33.0,29.89,SSE,154,0.0,0.0,67,0.00,,---,0.00,VWS V14.01,2013-01-01 23:10:00,
2013-01-01 18:15:00,43.1,32.9,29.90,SSE,154,1.0,2.0,67,0.00,,---,0.00,VWS V14.01,2013-01-01 23:15:00,
2013-01-01 18:20:00,43.1,32.9,29.90,SSE,154,0.0,1.0,67,0.00,,---,0.00,VWS V14.01,2013-01-01 23:20:00,
2013-01-01 18:25:00,43.1,32.9,29.90,SSE,154,1.0,2.0,67,0.00,,---,0.00,VWS V14.01,2013-01-01 23:25:00,
2013-01-01 18:30:00,43.2,32.6,29.90,SSE,155,0.0,0.0,66,0.00,,---,0.00,VWS V14.01,2013-01-01 23:30:00,
2013-01-01 18:35:00,43.2,32.6,29.90,SSE,165,0.0,4.0,66,0.00,,---,0.00,VWS V14.01,2013-01-01 23:35:00,
2013-01-01 18:40:00,43.2,33.0,29.90,SSE,165,0.0,0.0,67,0.00,,---,0.00,VWS V14.01,2013-01-01 23:40:00,
2013-01-01 18:45:00,42.9,32.7,29.91,SSE,165,0.0,0.0,67,0.00,,---,0.00,VWS V14.01,2013-01-01 23:45:00,
2013-01-01 18:50:00,42.8,32.6,29.91,SSE,165,0.0,0.0,67,0.00,,---,0.00,VWS V14.01,2013-01-01 23:50:00,
2013-01-01 18:55:00,42.6,32.8,29.91,SSE,165,0.0,0.0,68,0.00,,---,0.00,VWS V14.01,2013-01-01 23:55:00,
2013-01-01 19:00:00,42.3,32.9,29.91,SSE,165,0.0,0.0,69,0.00,,---,0.00,VWS V14.01,2013-01-02 00:00:00,
2013-01-01 19:05:00,42.2,32.8,29.91,SSE,165,0.0,0.0,69,0.00,,---,0.00,VWS V14.01,2013-01-02 00:05:00,
2013-01-01 19:10:00,42.1,32.7,29.91,SSE,165,0.0,0.0,69,0.00,,---,0.00,VWS V14.01,2013-01-02 00:10:00,
2013-01-01 19:15:00,41.8,33.1,29.91,SSE,165,0.0,0.0,71,0.00,,---,0.00,VWS V14.01,2013-01-02 00:15:00,
2013-01-01 19:20:00,41.3,33.0,29.91,SSE,165,0.0,0.0,72,0.00,,---,0.00,VWS V14.01,2013-01-02 00:20:00,
2013-01-01 19:25:00,40.9,32.6,29.91,SSE,165,0.0,0.0,72,0.00,,---,0.00,VWS V14.01,2013-01-02 00:25:00,
2013-01-01 19:30:00,40.8,32.8,29.92,SSE,165,0.0,0.0,73,0.00,,---,0.00,VWS V14.01,2013-01-02 00:30:00,
2013-01-01 19:35:00,40.6,33.0,29.92,SSE,165,0.0,0.0,74,0.00,,---,0.00,VWS V14.01,2013-01-02 00:35:00,
2013-01-01 19:40:00,40.5,32.9,29.92,SSE,165,0.0,0.0,74,0.00,,---,0.00,VWS V14.01,2013-01-02 00:40:00,
2013-01-01 19:45:00,40.2,32.9,29.91,SSE,165,0.0,1.0,75,0.00,,---,0.00,VWS V14.01,2013-01-02 00:45:00,
2013-01-01 19:50:00,40.2,32.9,29.91,SSE,165,0.0,0.0,75,0.00,,---,0.00,VWS V14.01,2013-01-02 00:50:00,
2013-01-01 19:55:00,40.1,32.8,29.91,SSE,165,0.0,0.0,75,0.00,,---,0.00,VWS V14.01,2013-01-02 00:55:00,
2013-01-01 20:00:00,39.6,32.7,29.91,South,169,0.0,0.0,76,0.00,,---,0.00,VWS V14.01,2013-01-02 01:00:00,
2013-01-01 20:05:00,39.5,32.9,29.91,South,169,0.0,0.0,77,0.00,,---,0.00,VWS V14.01,2013-01-02 01:05:00,
2013-01-01 20:10:00,39.3,32.7,29.91,South,169,0.0,0.0,77,0.00,,---,0.00,VWS V14.01,2013-01-02 01:10:00,
2013-01-01 20:15:00,39.3,32.7,29.93,South,169,0.0,0.0,77,0.00,,---,0.00,VWS V14.01,2013-01-02 01:15:00,
2013-01-01 20:20:00,39.2,32.6,29.93,South,169,0.0,0.0,77,0.00,,---,0.00,VWS V14.01,2013-01-02 01:20:00,
2013-01-01 20:25:00,39.3,32.7,29.93,South,169,0.0,0.0,77,0.00,,---,0.00,VWS V14.01,2013-01-02 01:25:00,
2013-01-01 20:30:00,39.2,32.6,29.93,South,169,0.0,1.0,77,0.00,,---,0.00,VWS V14.01,2013-01-02 01:30:00,
2013-01-01 20:35:00,39.2,32.6,29.93,South,169,0.0,0.0,77,0.00,,---,0.00,VWS V14.01,2013-01-02 01:35:00,
2013-01-01 20:40:00,39.1,32.5,29.93,South,169,0.0,0.0,77,0.00,,---,0.00,VWS V14.01,2013-01-02 01:40:00,
2013-01-01 20:45:00,39.1,32.2,29.94,South,169,0.0,0.0,76,0.00,,---,0.00,VWS V14.01,2013-01-02 01:45:00,
2013-01-01 20:50:00,39.1,32.2,29.94,South,169,0.0,0.0,76,0.00,,---,0.00,VWS V14.01,2013-01-02 01:50:00,
2013-01-01 20:55:00,39.2,32.0,29.94,South,169,2.0,2.0,75,0.00,,---,0.00,VWS V14.01,2013-01-02 01:55:00,
2013-01-01 21:00:00,39.3,32.0,29.94,South,169,0.0,0.0,75,0.00,,---,0.00,VWS V14.01,2013-01-02 02:00:00,
2013-01-01 21:05:00,39.2,32.0,29.94,South,169,0.0,0.0,75,0.00,,---,0.00,VWS V14.01,2013-01-02 02:05:00,
2013-01-01 21:10:00,39.3,31.7,29.94,South,169,0.0,0.0,74,0.00,,---,0.00,VWS V14.01,2013-01-02 02:10:00,
2013-01-01 21:15:00,39.3,31.7,29.92,South,169,0.0,0.0,74,0.00,,---,0.00,VWS V14.01,2013-01-02 02:15:00,
2013-01-01 21:20:00,39.3,31.4,29.92,South,169,0.0,0.0,73,0.00,,---,0.00,VWS V14.01,2013-01-02 02:20:00,
2013-01-01 21:25:00,39.2,31.6,29.92,South,169,0.0,2.0,74,0.00,,---,0.00,VWS V14.01,2013-01-02 02:25:00,
2013-01-01 21:30:00,39.3,31.4,29.94,South,169,0.0,1.0,73,0.00,,---,0.00,VWS V14.01,2013-01-02 02:30:00,
2013-01-01 21:35:00,39.5,31.2,29.94,South,169,0.0,0.0,72,0.00,,---,0.00,VWS V14.01,2013-01-02 02:35:00,
2013-01-01 21:40:00,39.6,31.0,29.94,South,169,0.0,0.0,71,0.00,,---,0.00,VWS V14.01,2013-01-02 02:40:00,
2013-01-01 21:45:00,39.5,31.6,29.94,South,169,0.0,1.0,73,0.00,,---,0.00,VWS V14.01,2013-01-02 02:45:00,
2013-01-01 21:50:00,39.3,31.7,29.94,South,169,0.0,0.0,74,0.00,,---,0.00,VWS V14.01,2013-01-02 02:50:00,
2013-01-01 21:55:00,39.1,31.2,29.94,South,169,0.0,0.0,73,0.00,,---,0.00,VWS V14.01,2013-01-02 02:55:00,
2013-01-01 22:00:00,39.1,31.2,29.94,South,169,0.0,0.0,73,0.00,,---,0.00,VWS V14.01,2013-01-02 03:00:00,
2013-01-01 22:05:00,39.1,31.5,29.94,South,169,0.0,0.0,74,0.00,,---,0.00,VWS V14.01,2013-01-02 03:05:00,
2013-01-01 22:10:00,38.9,31.3,29.94,South,169,0.0,0.0,74,0.00,,---,0.00,VWS V14.01,2013-01-02 03:10:00,
2013-01-01 22:15:00,38.8,31.6,29.94,South,169,0.0,0.0,75,0.00,,---,0.00,VWS V14.01,2013-01-02 03:15:00,
2013-01-01 22:20:00,38.6,31.4,29.94,South,169,0.0,0.0,75,0.00,,---,0.00,VWS V14.01,2013-01-02 03:20:00,
2013-01-01 22:25:00,38.5,31.3,29.94,South,169,0.0,0.0,75,0.00,,---,0.00,VWS V14.01,2013-01-02 03:25:00,
2013-01-01 22:30:00,38.3,31.1,29.92,South,169,0.0,0.0,75,0.00,,---,0.00,VWS V14.01,2013-01-02 03:30:00,
2013-01-01 22:35:00,38.2,31.0,29.92,South,169,0.0,0.0,75,0.00,,---,0.00,VWS V14.01,2013-01-02 03:35:00,
2013-01-01 22:40:00,38.0,31.1,29.92,South,169,0.0,0.0,76,0.00,,---,0.00,VWS V14.01,2013-01-02 03:40:00,
2013-01-01 22:45:00,37.9,31.0,29.94,South,169,0.0,0.0,76,0.00,,---,0.00,VWS V14.01,2013-01-02 03:45:00,
2013-01-01 22:50:00,37.8,31.2,29.94,South,169,0.0,0.0,77,0.00,,---,0.00,VWS V14.01,2013-01-02 03:50:00,
2013-01-01 22:55:00,37.6,31.4,29.94,South,169,0.0,0.0,78,0.00,,---,0.00,VWS V14.01,2013-01-02 03:55:00,
2013-01-01 23:00:00,37.6,31.4,29.92,South,169,0.0,0.0,78,0.00,,---,0.00,VWS V14.01,2013-01-02 04:00:00,
2013-01-01 23:05:00,37.5,31.3,29.92,South,169,0.0,0.0,78,0.00,,---,0.00,VWS V14.01,2013-01-02 04:05:00,
2013-01-01 23:10:00,37.3,31.4,29.92,South,169,0.0,0.0,79,0.00,,---,0.00,VWS V14.01,2013-01-02 04:10:00,
2013-01-01 23:15:00,37.2,31.3,29.94,South,169,0.0,0.0,79,0.00,,---,0.00,VWS V14.01,2013-01-02 04:15:00,
2013-01-01 23:20:00,37.2,31.6,29.94,South,169,0.0,0.0,80,0.00,,---,0.00,VWS V14.01,2013-01-02 04:20:00,
2013-01-01 23:25:00,37.0,31.4,29.94,South,169,0.0,0.0,80,0.00,,---,0.00,VWS V14.01,2013-01-02 04:25:00,
2013-01-01 23:30:00,37.0,31.4,29.94,South,169,0.0,0.0,80,0.00,,---,0.00,VWS V14.01,2013-01-02 04:30:00,
2013-01-01 23:35:00,36.9,31.3,29.94,South,169,0.0,0.0,80,0.00,,---,0.00,VWS V14.01,2013-01-02 04:35:00,
2013-01-01 23:40:00,36.9,31.3,29.94,South,169,0.0,0.0,80,0.00,,---,0.00,VWS V14.01,2013-01-02 04:40:00,
2013-01-01 23:45:00,36.8,31.5,29.94,South,169,0.0,0.0,81,0.00,,---,0.00,VWS V14.01,2013-01-02 04:45:00,
2013-01-01 23:50:00,36.8,31.2,29.94,South,169,0.0,0.0,80,0.00,,---,0.00,VWS V14.01,2013-01-02 04:50:00,
2013-01-01 23:55:00,36.9,31.3,29.94,South,169,0.0,0.0,80,0.00,,---,0.00,VWS V14.01,2013-01-02 04:55:00,